TimeEDT,TemperatureF,Dew PointF,Humidity,Sea Level PressureIn,VisibilityMPH,Wind Direction,Wind SpeedMPH,Gust SpeedMPH,PrecipitationIn,Events,Conditions,WindDirDegrees,DateUTC
12:15 AM,75.2,75.2,100,29.93,10.0,Calm,Calm,-,N/A,,Scattered Clouds,0,2012-09-30 04:15:00
12:35 AM,75.2,73.4,94,29.93,9.0,Calm,Calm,-,N/A,,Mostly Cloudy,0,2012-09-30 04:35:00
12:55 AM,75.2,73.4,94,29.92,10.0,Calm,Calm,-,N/A,,Scattered Clouds,0,2012-09-30 04:55:00
1:15 AM,73.4,73.4,100,29.92,10.0,Calm,Calm,-,N/A,Rain,Light Rain,0,2012-09-30 05:15:00
1:55 AM,73.4,73.4,100,29.91,9.0,ESE,3.5,-,N/A,,Scattered Clouds,120,2012-09-30 05:55:00
2:15 AM,73.4,73.4,100,29.91,9.0,East,3.5,-,N/A,,Partly Cloudy,100,2012-09-30 06:15:00
2:35 AM,73.4,73.4,100,29.91,10.0,Calm,Calm,-,N/A,,Scattered Clouds,0,2012-09-30 06:35:00
2:55 AM,73.4,73.4,100,29.90,10.0,East,3.5,-,N/A,,Scattered Clouds,100,2012-09-30 06:55:00
3:15 AM,71.6,71.6,100,29.89,10.0,Calm,Calm,-,N/A,,Mostly Cloudy,0,2012-09-30 07:15:00
3:35 AM,71.6,71.6,100,29.88,10.0,Calm,Calm,-,N/A,,Mostly Cloudy,0,2012-09-30 07:35:00
3:55 AM,71.6,71.6,100,29.88,10.0,Calm,Calm,-,N/A,,Scattered Clouds,0,2012-09-30 07:55:00
4:15 AM,71.6,71.6,100,29.88,10.0,Calm,Calm,-,N/A,,Partly Cloudy,0,2012-09-30 08:15:00
4:35 AM,71.6,71.6,100,29.87,10.0,Calm,Calm,-,N/A,,Partly Cloudy,0,2012-09-30 08:35:00
4:55 AM,71.6,71.6,100,29.87,10.0,Calm,Calm,-,N/A,,Partly Cloudy,0,2012-09-30 08:55:00
5:15 AM,71.6,71.6,100,29.87,10.0,Calm,Calm,-,N/A,,Partly Cloudy,0,2012-09-30 09:15:00
5:35 AM,71.6,71.6,100,29.87,10.0,Calm,Calm,-,N/A,,Scattered Clouds,0,2012-09-30 09:35:00
5:55 AM,71.6,71.6,100,29.87,9.0,ESE,3.5,-,N/A,,Scattered Clouds,110,2012-09-30 09:55:00
6:15 AM,71.6,71.6,100,29.87,10.0,Calm,Calm,-,N/A,,Partly Cloudy,0,2012-09-30 10:15:00
6:35 AM,71.6,71.6,100,29.87,9.0,Calm,Calm,-,N/A,,Partly Cloudy,0,2012-09-30 10:35:00
6:55 AM,71.6,71.6,100,29.88,10.0,SE,3.5,-,N/A,,Scattered Clouds,140,2012-09-30 10:55:00
7:15 AM,71.6,71.6,100,29.89,10.0,Calm,Calm,-,N/A,,Scattered Clouds,0,2012-09-30 11:15:00
3:35 PM,87.8,69.8,55,29.82,9.0,South,3.5,-,N/A,,Partly Cloudy,180,2012-09-30 19:35:00
3:55 PM,87.8,69.8,55,29.82,8.0,West,3.5,-,N/A,,Scattered Clouds,260,2012-09-30 19:55:00
4:15 PM,87.8,69.8,55,29.81,10.0,Calm,Calm,-,N/A,,Unknown,0,2012-09-30 20:15:00
4:35 PM,89.6,69.8,52,29.80,10.0,South,8.1,-,N/A,,Scattered Clouds,190,2012-09-30 20:35:00
4:55 PM,89.6,69.8,52,29.80,9.0,SSW,8.1,-,N/A,,Scattered Clouds,210,2012-09-30 20:55:00
5:15 PM,87.8,69.8,55,29.79,9.0,South,5.8,-,N/A,,Scattered Clouds,190,2012-09-30 21:15:00
5:35 PM,86.0,69.8,58,29.79,9.0,SSW,6.9,-,N/A,,Scattered Clouds,210,2012-09-30 21:35:00
5:55 PM,82.4,73.4,74,29.80,4.0,WSW,15.0,-,N/A,Rain,Rain,240,2012-09-30 21:55:00
6:15 PM,78.8,73.4,83,29.81,2.0,West,8.1,-,0.01,Rain,Light Rain,270,2012-09-30 22:15:00
6:35 PM,80.6,71.6,74,29.81,9.0,West,6.9,-,0.01,,Mostly Cloudy,260,2012-09-30 22:35:00
6:55 PM,80.6,73.4,79,29.81,10.0,West,5.8,-,0.01,,Scattered Clouds,260,2012-09-30 22:55:00
7:15 PM,80.6,73.4,79,29.81,9.0,West,5.8,-,N/A,,Scattered Clouds,260,2012-09-30 23:15:00
7:35 PM,78.8,73.4,83,29.81,10.0,West,4.6,-,N/A,,Mostly Cloudy,270,2012-09-30 23:35:00
7:55 PM,78.8,73.4,83,29.82,10.0,Calm,Calm,-,N/A,,Mostly Cloudy,0,2012-09-30 23:55:00
8:15 PM,78.8,71.6,78,29.82,10.0,Calm,Calm,-,N/A,,Partly Cloudy,0,2012-10-01 00:15:00
8:35 PM,75.2,75.2,100,29.83,10.0,Calm,Calm,-,N/A,,Scattered Clouds,0,2012-10-01 00:35:00
8:55 PM,75.2,73.4,94,29.83,10.0,Calm,Calm,-,N/A,,Scattered Clouds,0,2012-10-01 00:55:00
9:15 PM,75.2,75.2,100,29.84,10.0,Calm,Calm,-,N/A,,Mostly Cloudy,0,2012-10-01 01:15:00
9:35 PM,75.2,71.6,89,29.84,10.0,Calm,Calm,-,N/A,,Mostly Cloudy,0,2012-10-01 01:35:00
9:55 PM,73.4,73.4,100,29.85,10.0,South,6.9,-,N/A,,Mostly Cloudy,170,2012-10-01 01:55:00
10:15 PM,75.2,73.4,94,29.86,10.0,SSW,4.6,-,N/A,,Mostly Cloudy,210,2012-10-01 02:15:00
10:35 PM,75.2,73.4,94,29.85,10.0,SW,3.5,-,N/A,,Mostly Cloudy,230,2012-10-01 02:35:00
10:55 PM,75.2,73.4,94,29.86,10.0,SW,3.5,-,N/A,,Mostly Cloudy,220,2012-10-01 02:55:00
11:15 PM,75.2,73.4,94,29.86,10.0,Calm,Calm,-,N/A,,Scattered Clouds,0,2012-10-01 03:15:00
11:35 PM,75.2,73.4,94,29.86,10.0,Calm,Calm,-,N/A,,Mostly Cloudy,0,2012-10-01 03:35:00
11:55 PM,75.2,75.2,100,29.86,10.0,SE,3.5,-,N/A,,Mostly Cloudy,130,2012-10-01 03:55:00